Weather Service Report


018 
ASUS41 KAKQ 301815
RWRAKQ

REGIONAL WEATHER ROUNDUP
NATIONAL WEATHER SERVICE WAKEFIELD VA
200 PM EDT MON MAY 30 2016

Note: "fair" indicates few or no clouds below 12,000 feet with no
significant weather and/or obstructions to visibility. * = Denotes
station may not report precipitation (e.g., rain,snow,etc.),
thunder or fog.

VAZ042-051-052>054-056-301900-
NORTHERN VIRGINIA
  
CITY           SKY/WX    TMP DP  RH WIND       PRES   REMARKS
WASH NATIONAL  CLOUDY    79  68  69 S5        29.98F                  
DULLES         PTSUNNY   81  64  56 VRB6      29.98F                  
FORT BELVOIR   PTSUNNY   79  68  69 S6        29.98F                  
QUANTICO       CLOUDY    77  69  76 SW7       29.99F                  
FREDERICKSBRG* FAIR      77  70  78 CALM      29.98F                  
STAFFORD*      CLOUDY    77  68  72 SE3       30.03F                  
WARRENTON      CLOUDY    81  61  49 CALM      29.99S                  
CULPEPER*      FAIR      82  66  59 CALM      29.99F                  
MANASSAS*      CLOUDY    81  68  65 S5        29.98F                  
LEESBURG*      FAIR      82  68  61 S8        29.99F                  
WINCHESTER     FAIR      81  63  54 CALM      29.99F                  
FRONT ROYAL*   FAIR      81  63  54 CALM      29.99F                  
LURAY*         FAIR      81  61  50 N5        29.99F                  
$$

VAZ048-049-060>072-079>083-301900-
CENTRAL AND SOUTH CENTRAL VIRGINIA
  
CITY           SKY/WX    TMP DP  RH WIND       PRES   REMARKS
RICHMOND       CLOUDY    77  70  79 N3        29.98F                  
CHESTERFIELD*  MOCLDY    79  63  57 CALM      30.00F                  
PETERSBURG*    RAIN      77  77 100 CALM      29.99S                  
HANOVER        LGT RAIN  74  69  85 CALM      30.00F                  
TAPPAHANNOCK*  RAIN      74  74 100 SE3       30.00S                  
QUINTON*       CLOUDY    73  73  98 CALM      29.98F FOG              
CHARLOTTSVILLE PTSUNNY   81  65  58 CALM      29.99F                  
GORDONSVILLE*  MOCLDY    79  68  69 CALM      29.99S                  
ORANGE*        CLOUDY    81  66  61 CALM      30.01F                  
LOUISA*        PTSUNNY   81  72  74 SE3       29.99S                  
BUMPASS*       CLOUDY    75  69  81 CALM      29.99F                  
FARMVILLE*     FAIR      78  69  74 SE3       29.98F                  
CREWE*         CLOUDY    74  74 100 CALM      30.00S                  
FORT PICKETT*  NOT AVBL                                               
CHASE CITY*    MOCLDY    76  71  84 CALM      29.99F                  
CLARKSVILLE*   CLOUDY    73  72  94 CALM      29.99F                  
SOUTH HILL*    CLOUDY    76  71  84 N7        30.03F                  
LAWRENCEVILLE* CLOUDY    72  72  99 N3        29.98F                  
EMPORIA*       FAIR      77  70  78 E6        29.98F                  
$$

VAZ088>098-301900-
SOUTHEAST VIRGINIA
  
CITY           SKY/WX    TMP DP  RH WIND       PRES   REMARKS
NORFOLK        LGT RAIN  77  69  76 S6        29.99F                  
VIRGINIA BEACH CLOUDY    79  71  76 SE6       29.98F                  
NORFOLK NAVAL  CLOUDY    77  69  76 SE6       30.00F                  
WEST POINT*    CLOUDY    74  71  88 SE6       30.00F                  
SALUDA*        CLOUDY    72  71  95 E5        29.99F                  
NEWPORT NEWS   LGT RAIN  72  70  93 NE6       30.00S                  
LANGLEY AFB    LGT RAIN  72  70  94 NE12      29.99S FOG              
FORT EUSTIS    FAIR      72  55  56 E7        29.97F                  
WILLIAMSBURG*  FAIR      75  73  94 E3        30.00F                  
HR EXEC AP*    CLOUDY    77  72  83 SE6       30.01S                  
FRANKLIN*      PTSUNNY   78  69  75 E7        29.98F                  
US460-WAKEFLD  CLOUDY    78  69  73 VRB5      29.98S                  
$$

VAZ020-022-025-037-045-301900-
WEST CENTRAL AND SOUTHWEST VIRGINIA
  
CITY           SKY/WX    TMP DP  RH WIND       PRES   REMARKS
STAUNTON*      FAIR      78  62  57 CALM      30.03F                  
WAYNESBORO*    FAIR      78  63  59 N5        30.02F                  
HOT SPRINGS VA FAIR      72  54  53 E3        30.12F                  
LYNCHBURG      PTSUNNY   80  64  58 CALM      30.01F                  
DANVILLE       FAIR      81  67  62 MISG      29.99F                  
SOUTH BOSTON*  MOCLDY    78  72  79 CALM      29.99F                  
MARTINSVILLE   PTSUNNY   76  64  65 N5        30.03F                  
ROANOKE        FAIR      81  62  52 N8        30.04F                  
BLACKSBURG     FAIR      79  63  57 E9        30.08F                  
DUBLIN*        FAIR      81  60  49 SE7       30.07F                  
MARION*        PTSUNNY   78  61  56 E3        30.09F                  
HILLSVILLE*    FAIR      76  58  52 N7        30.07F                  
RICHLANDS*     FAIR      79  42  27 N3        30.08F                  
WISE*          PTSUNNY   77  55  47 NE8       30.10F                  
ABINGDON*      PTSUNNY   83  61  47 W5        30.05F                  
$$

MDZ021>025-VAZ099-100-301900-
SOUTHERN MARYLAND AND THE DELMARVA PENINSULA
  
CITY           SKY/WX    TMP DP  RH WIND       PRES   REMARKS
PATUXENT RIVER CLOUDY    70  68  93 SE10      29.99F                  
BAY BRIDGE APT CLOUDY    77  66  69 S5        29.99S                  
LEONARDTOWN    CLOUDY    70  68  94 SE5       30.01S                  
DOVER          LGT RAIN  73  73 100 SE7       29.98S                  
GEORGETOWN     RAIN      71  69  93 CALM      30.02S FOG              
EASTON         LGT RAIN  73  72  94 SE3       30.03F                  
CAMBRIDGE      CLOUDY    72  70  94 S6        29.99S                  
SALISBURY      LGT RAIN  73  72  96 S5        30.00F                  
OCEAN CITY     LGT RAIN  70  69  97 CALM      30.01F                  
WALLOPS ISLAND LGT RAIN  72  70  93 S6        30.01F                  
ACCOMACK*      LGT RAIN  72  68  88 SW5       30.01F                  
$$

NCZ012>017-030>032-301900-
NORTH CENTRAL AND EASTERN NORTH CAROLINA
  
CITY           SKY/WX    TMP DP  RH WIND       PRES   REMARKS
ROANOKE RAPIDS FAIR      81  70  69 E7        29.96F                  
RALEIGH        PTSUNNY   81  71  71 NE9G16    29.96F                  
ELIZABETH CITY LGT RAIN  74  72  93 SE8       30.00S                  
AHOSKIE*       MOSUNNY   79  70  73 SE3       29.97F                  
EDENTON*         N/A     79  78  96 SE8       29.99                   
CURRITUCK*     LGT RAIN  74  74  99 CALM      30.00F                  
KILL DEVIL HLS RAIN      73  72  96 CALM      30.00S                  
MANTEO         NOT AVBL                                               
CAPE HATTERAS  RAIN      72  70  93 CALM      30.01F                  
TARBORO*       FAIR      80  72  76 E7        29.97F                  
GOLDSBORO      LGT RAIN  72  72 100 NE8       29.95S FOG              
WASHINGTON     CLOUDY    79  69  70 E7        29.96F                  
GREENVILLE     LGT RAIN  79  72  78 CALM      29.99F                  
NEW BERN       CLOUDY    76  72  87 CALM      29.97S                  
WILMINGTON     PTSUNNY   81  71  71 SE12      29.93F                  
$$

VAZ048-301900-
ELSEWHERE
  
CITY           SKY/WX    TMP DP  RH WIND       PRES   REMARKS
HARRISBURG PA  PTSUNNY   83  66  56 CALM      29.96F                  
BALTIMORE      CLOUDY    80  64  58 VRB5      29.97F                  
ANNAPOLIS      MOSUNNY   74  68  81 SE8       29.98F                  
ANDREWS AFB    PTSUNNY   78  69  74 S5        29.98F                  
PHILADELPHIA   PTSUNNY   78  66  66 SW6       29.98F                  
HENDERSON NC   MOSUNNY   75  69  82 CALM      29.99F                  
GREENSBORO     PTSUNNY   79  66  64 E8        29.99F                  
ROCKY MOUNT    CLOUDY    80  71  74 VRB6      29.96F                  
$$

VAZ100-301900-
MARINE
  
STATION/POSITION TIME  TEMP    WIND        PRES    WAVE   SWELL
                       AIR SEA DIR/SP/G            HT/PER HT/PER
                 (UTC) (F)     (DEG/KT/KT) (MB)    (FT/S) (FT/S)
BRANDYWINE LGT   1700   67     160/  9/ 10 1016.2F
CAPE MAY NJ      1700   67 68  160/  5/  7 1016.0F
LEWES DE         1700   71 64  320/ 11/ 14 1016.4R
15NM E FENWICK I 1750   67 65              1016.5F   4/ 7
OCEAN-CITY-INLET 1700   67 66  180/  6/  8 1017.0F
WACHAPREAGUE VA  1700   73 76  180/  4/  6 1016.0F
THOMAS POINT MD  1800   71 71  180/  5/  5 1016.8F
GOOSES REEF MD   1800   71 70  220/  2/  2 1016.5F   1
COVE POINT MD    1700   69      CALM  /  1 1016.5F
SOLOMONS ISLAND  1700   70 66  170/  1/  2   N/A
BISHOPS HEAD MD  1700   72 75  180/ 10/ 12 1016.0F
PINEY POINT MD   1700           CALM  /  1   N/A
POTOMAC MD       1800   70 71  160/  8/ 10 1014.8F   1/ 2
CAMBRIDGE MD     1700   72 70   CALM  /  1 1015.1F
LEWISETTA VA     1700   73 72  180/  8/  9 1015.5F
RAPPAHANNOCK LGT 1700          280/  1/  2 1017.1F
STINGRAY PT      1700   69 69  150/  6/  8 1016.8F   0
YORK RVR RNG VA  1700   70      60/ 10/ 11 1015.6F
YORKTOWN VA      1700   70 72   70/  9/ 10 1015.8F
JAMESTOWN VA     1800   73 75  100/  8/ 10   N/A     0
DOMINION TERM VA 1700   76      90/  3/  3 1015.7F
KIPTOPEKE VA     1700      70  150/  5/  9   N/A
CHES BAY BRIDGE  1700   73 68  100/  3/  7 1015.8F
CAPE HENRY VA    1700   71     140/  9/ 12   N/A
CHESAPEAKE LGHT  1700   69     160/ 11/ 12 1016.9F
WILLOUBY STN VA  1700   72      40/  7/  7 1016.7F
CAPE HENRY BUOY  1712      69                N/A     4/ 6
1ST LANDING BUOY 1800   70 71  120/ 10/ 12 1015.5F   2/ 5
CAPE CHARLES BUO 1726      67                N/A     3/ 6   3/ 6
OFFSHORE WE BUOY 1721      70                N/A     5/ 7   5/ 7
64NM E OF VA BCH 1750   67 64  180/ 12/ 14 1016.0F   5/ 7   5/ 7
DUCK PIER NC     1700   65 58  140/  8/  9 1015.5F
44100 DUCK FRF   1724      68                N/A     5/ 8
44056 DUCK FRF   1711      62                N/A     3/ 7
OREGON INLET NC  1700   73 77  160/  6/  9 1016.3F
HATTERAS NC      1700   71 75  140/  5/  8 1016.2S
DIAMOND SHLS NC  1750   73 80  240/ 10/ 17 1015.9F   6/ 7   5/ 7
CAPE LOOKOUC1F1C2F2C3F3C4F4C5F5C6F6C7F7C8M1C9!

Return to Home page


Western Regional Climate Center, wrcc@dri.edu